Location: A�t Bou Chrif
(32.7193°N, 5.2385°W)
Time: 03:07:32
(UTC+00:00)

Resurs 1-3 - Pass Details

Date: 08 August 2020
Orbit: 629 x 632 km, 97.9° (Epoch: 20 September)

Event Time Altitude Azimuth Distance (km) Brightness Sun altitude
Exits shadow 20:12:32 18° 127° (SE) 1,557 5.0 -12.3°
Maximum altitude 20:15:11 34° 73° (ENE) 1,042 4.4 -12.8°
Drops below altitude 10° 20:19:09 10° 8° (N) 2,015 6.5 -13.6°
Sets 20:21:29 0° 359° (N) 2,928 7.5 -14.0°
